Concord, CA

12:09 PM PST on February 21, 2018 (GMT -0800)
Buchanan

Weather History for KCCR - May, 2013

Change the Weather History Date:

Tuesday, May 21, 2013

  Actual Average Record
Temperature  
Mean Temperature 63 °F 65 °F  
Max Temperature 74 °F 77 °F 100 °F (2000)
Min Temperature 52 °F 52 °F 48 °F (2002)
Degree Days  
Heating Degree Days 2    
Month to date heating degree days 25  
Since 1 July heating degree days 2376  
Cooling Degree Days 0    
Month to date cooling degree days 53  
Year to date cooling degree days 81  
Growing Degree Days 14 (Base 50)    
Moisture  
Dew Point 42 °F    
Average Humidity 49    
Maximum Humidity 72    
Minimum Humidity 25    
Precipitation  
Precipitation 0.00 in - 0.53 in (2006)
Month to date precipitation T  
Year to date precipitation 1.92  
Since 1 July precipitation 11.56  
Sea Level Pressure  
Sea Level Pressure 29.90 in    
Wind  
Wind Speed 13 mph (SW)    
Max Wind Speed 21 mph    
Max Gust Speed 28 mph    
Visibility 10 miles    
Events      
T = Trace of Precipitation, MM = Missing Value Source: NWS Daily Summary

Daily Weather History Graph

Daily Weather History Graph

Search for Another Location

Airport or City:

Trip Planner

Search our weather history database for the weather conditions in past years. The results will help you decide how hot, cold, wet, or windy it might be!

Date:

Astronomy

May. 21, 2013 Rise Set
Actual Time 5:53 AM PDT 8:17 PM PDT
Civil Twilight 5:22 AM PDT 8:47 PM PDT
Nautical Twilight 4:45 AM PDT 9:24 PM PDT
Astronomical Twilight 4:05 AM PDT 10:05 PM PDT
Moon 4:40 PM PDT 3:20 AM PDT
Length of Visible Light 15h 24m
Length of Day
14h 24m
Waxing Gibbous, 85% of the Moon is Illuminated
May 21
Waxing Gibbous
May 24
Full
May 31
Last Quarter
Jun 8
New
Jun 16
First Quarter

Hourly Weather History & Observations

Time (PDT) Temp. Dew Point Humidity Pressure Visibility Wind Dir Wind Speed Gust Speed Precip Events Conditions
12:53 AM 55.9 °F 46.0 °F 69% 29.87 in 10.0 mi SSW 12.7 mph - N/A   Clear
1:53 AM 55.0 °F 46.0 °F 72% 29.87 in 10.0 mi South 9.2 mph - N/A   Clear
2:53 AM 55.0 °F 46.0 °F 72% 29.86 in 10.0 mi SSW 12.7 mph - N/A   Clear
3:53 AM 55.9 °F 45.0 °F 67% 29.86 in 10.0 mi SSW 15.0 mph - N/A   Clear
4:53 AM 55.0 °F 45.0 °F 69% 29.87 in 10.0 mi South 13.8 mph - N/A   Clear
5:53 AM 55.9 °F 46.0 °F 69% 29.88 in 10.0 mi South 10.4 mph - N/A   Clear
6:53 AM 57.0 °F 45.0 °F 64% 29.90 in 10.0 mi SSW 11.5 mph - N/A   Clear
7:53 AM 57.9 °F 45.0 °F 62% 29.92 in 10.0 mi South 10.4 mph - N/A   Clear
8:53 AM 63.0 °F 44.1 °F 50% 29.92 in 10.0 mi SSW 10.4 mph - N/A   Clear
9:53 AM 66.9 °F 41.0 °F 39% 29.93 in 10.0 mi WSW 11.5 mph - N/A   Clear
10:53 AM 70.0 °F 41.0 °F 35% 29.94 in 10.0 mi WSW 13.8 mph 19.6 mph N/A   Clear
11:53 AM 71.1 °F 41.0 °F 34% 29.93 in 10.0 mi WSW 15.0 mph 27.6 mph N/A   Clear
12:53 PM 73.0 °F 36.0 °F 26% 29.92 in 10.0 mi West 15.0 mph 21.9 mph N/A   Clear
1:53 PM 72.0 °F 37.9 °F 29% 29.91 in 10.0 mi West 11.5 mph 21.9 mph N/A   Clear
2:53 PM 72.0 °F 37.0 °F 28% 29.90 in 10.0 mi WSW 19.6 mph 26.5 mph N/A   Clear
3:53 PM 73.0 °F 36.0 °F 26% 29.90 in 10.0 mi WSW 17.3 mph 24.2 mph N/A   Clear
4:53 PM 69.1 °F 37.0 °F 31% 29.88 in 10.0 mi WSW 13.8 mph 21.9 mph N/A   Clear
5:53 PM 66.9 °F 41.0 °F 39% 29.88 in 10.0 mi West 13.8 mph - N/A   Clear
6:53 PM 64.9 °F 41.0 °F 42% 29.88 in 10.0 mi WSW 13.8 mph 18.4 mph N/A   Clear
7:53 PM 61.0 °F 41.0 °F 48% 29.88 in 10.0 mi WSW 12.7 mph - N/A   Clear
8:53 PM 57.0 °F 41.0 °F 55% 29.89 in 10.0 mi WSW 11.5 mph 19.6 mph N/A   Clear
9:53 PM 55.9 °F 39.9 °F 55% 29.91 in 10.0 mi SW 10.4 mph - N/A   Clear
10:53 PM 55.0 °F 39.9 °F 57% 29.93 in 10.0 mi West 13.8 mph 23.0 mph N/A   Clear
11:53 PM 53.1 °F 37.9 °F 57% 29.94 in 10.0 mi West 9.2 mph 23.0 mph N/A   Clear